Precipitable_Water
0.69 0.77 0.90 1.03 1.10 1.19 1.30 1.32 1.34 1.37 1.36 1.28 1.20 1.23 1.20 1.18 1.13 1.16 1.15 1.15 1.10 1.11 1.07 1.09 1.06 0.93 0.92 0.91 0.83 0.81 0.73 0.67
0.69 0.69 0.79 0.87 0.95 1.02 1.05 1.12 1.24 1.29 1.23 1.17 1.16 1.11 1.11 1.05 1.03 1.08 1.12 1.13 1.10 1.13 1.10 1.06 0.98 0.89 0.86 0.90 0.86 0.80 0.75 0.75
0.62 0.62 0.69 0.74 0.80 0.88 0.94 1.00 1.06 1.10 1.07 1.08 1.10 1.07 1.02 0.97 0.96 0.96 1.01 1.00 0.98 1.02 1.01 0.95 0.90 0.85 0.86 0.91 0.88 0.82 0.81 0.81
0.62 0.57 0.59 0.66 0.70 0.78 0.83 0.88 0.96 1.01 1.05 1.06 1.03 1.02 0.94 0.88 0.87 0.89 0.91 0.93 0.93 0.99 1.01 0.98 0.96 0.92 0.89 0.92 0.90 0.87 0.83 0.87
0.65 0.60 0.57 0.57 0.63 0.74 0.79 0.81 0.82 0.89 0.96 0.92 0.90 0.86 0.80 0.84 0.83 0.83 0.84 0.89 0.90 0.99 1.06 1.04 1.00 1.05 0.99 0.99 1.01 0.99 0.98 0.90
0.60 0.60 0.58 0.58 0.60 0.65 0.71 0.77 0.76 0.80 0.83 0.83 0.79 0.77 0.77 0.80 0.79 0.78 0.80 0.85 0.91 0.97 1.03 1.00 1.05 1.11 1.09 1.08 1.09 1.10 1.11 1.04
0.72 0.74 0.73 0.66 0.63 0.63 0.65 0.69 0.74 0.76 0.76 0.77 0.74 0.72 0.73 0.75 0.77 0.77 0.80 0.83 0.86 0.91 0.93 0.99 1.11 1.18 1.16 1.16 1.21 1.17 1.13 1.10
0.74 0.74 0.72 0.69 0.65 0.62 0.64 0.65 0.66 0.74 0.76 0.73 0.74 0.75 0.76 0.76 0.77 0.77 0.78 0.79 0.82 0.87 0.97 1.01 1.04 1.19 1.24 1.25 1.24 1.21 1.16 1.09
0.72 0.75 0.77 0.76 0.70 0.64 0.62 0.62 0.63 0.70 0.76 0.78 0.78 0.79 0.79 0.79 0.80 0.84 0.83 0.82 0.83 0.88 0.91 0.95 1.02 1.21 1.32 1.28 1.32 1.26 1.20 1.15
0.67 0.73 0.77 0.82 0.81 0.76 0.68 0.62 0.62 0.66 0.68 0.72 0.75 0.79 0.79 0.78 0.82 0.85 0.86 0.87 0.98 1.09 1.15 1.16 1.21 1.33 1.24 1.32 1.29 1.13 1.17 1.12
0.62 0.67 0.74 0.79 0.84 0.88 0.93 0.83 0.71 0.67 0.69 0.73 0.79 0.84 0.87 0.91 0.93 0.93 0.98 1.02 1.10 1.19 1.28 1.27 1.29 1.30 1.34 1.30 1.21 1.14 1.11 1.07
0.57 0.61 0.69 0.75 0.82 0.88 0.88 0.94 0.90 0.90 0.93 0.94 0.96 0.97 1.02 1.06 1.08 1.07 1.09 1.17 1.21 1.26 1.29 1.33 1.23 1.26 1.28 1.23 1.18 1.13 1.05 1.01
0.62 0.63 0.66 0.73 0.76 0.81 0.87 0.90 0.91 0.93 0.98 1.01 1.04 1.11 1.14 1.16 1.18 1.17 1.30 1.28 1.32 1.23 1.30 1.34 1.02 1.09 1.15 1.14 1.10 1.06 0.99 0.95
0.55 0.64 0.65 0.65 0.70 0.74 0.79 0.88 0.89 0.90 0.95 0.95 0.99 1.04 1.15 1.15 1.15 1.10 1.20 1.24 1.26 1.29 1.13 1.02 1.05 1.04 1.07 1.10 1.07 1.02 1.00 0.99
0.49 0.53 0.55 0.59 0.63 0.64 0.68 0.71 0.76 0.83 0.87 0.87 0.90 0.95 1.00 1.08 1.15 1.14 1.14 1.23 1.20 1.17 1.15 1.02 1.06 1.05 1.05 1.09 1.04 1.00 0.95 0.90
0.49 0.52 0.54 0.57 0.60 0.62 0.65 0.65 0.70 0.76 0.76 0.78 0.79 0.90 1.00 1.07 1.17 1.14 1.16 1.15 1.18 1.16 1.15 1.11 1.09 1.10 1.09 1.06 1.00 0.91 0.80 0.74
0.49 0.54 0.58 0.59 0.61 0.62 0.65 0.66 0.66 0.70 0.69 0.69 0.84 0.92 1.00 1.06 1.12 1.09 1.09 1.09 1.12 1.11 1.07 1.10 1.06 1.07 1.06 0.98 0.85 0.73 0.68 0.70
0.53 0.52 0.57 0.62 0.61 0.64 0.64 0.71 0.73 0.71 0.72 0.73 0.82 0.91 0.95 1.00 1.03 1.02 0.97 0.97 1.04 1.02 1.02 1.03 1.01 0.94 0.86 0.79 0.73 0.69 0.70 0.68
0.57 0.56 0.56 0.61 0.69 0.74 0.74 0.79 0.78 0.77 0.80 0.79 0.82 0.89 0.92 0.96 0.98 0.96 0.94 0.96 0.96 0.96 0.97 0.87 0.81 0.77 0.75 0.72 0.69 0.68 0.66 0.66
Wind_Speed
1 2 3 4 6 10 17 19 22 23 22 24 24 24 24 25 25 25 23 22 21 21 19 19 18 16 16 16 15 15 15 15
3 2 3 4 6 9 11 15 19 22 23 24 24 26 25 24 24 24 22 21 21 20 19 18 17 17 17 17 17 16 16 16
5 4 5 5 6 8 11 13 15 18 20 21 22 24 23 24 23 24 23 22 21 21 20 19 18 18 18 19 18 17 17 18
7 8 7 7 7 9 10 12 14 16 17 19 20 20 21 22 23 23 24 23 23 22 21 20 19 19 20 21 21 20 19 20
10 9 9 9 9 10 11 12 14 15 16 18 19 20 20 21 22 23 24 24 24 23 22 23 22 22 23 24 23 23 22 20
12 12 12 11 11 11 12 13 14 15 17 17 18 18 19 20 21 22 24 25 25 23 23 24 24 25 25 25 26 26 25 24
14 13 12 12 13 13 13 14 15 16 17 18 18 19 18 19 20 21 22 23 24 24 24 25 26 27 27 28 28 28 28 28
16 16 14 14 15 16 16 16 17 18 18 18 19 19 19 20 21 21 21 23 24 25 25 27 28 29 29 29 30 31 30 29
17 19 18 17 17 18 19 19 19 20 20 20 20 21 21 22 23 23 23 25 25 27 27 29 31 31 33 31 30 31 29 30
19 19 21 21 20 20 21 21 21 22 23 23 23 23 24 25 26 27 27 28 28 29 29 31 31 34 30 31 29 27 27 29
19 19 20 21 22 23 23 23 23 24 25 25 26 26 27 28 29 30 31 31 32 33 33 33 32 34 30 29 27 28 29 30
18 19 19 20 21 23 25 25 25 25 27 28 29 29 29 29 30 35 35 34 34 35 38 35 33 29 27 28 29 29 30 30
20 19 20 21 22 23 26 28 27 28 28 29 30 30 31 29 33 34 35 34 33 30 29 34 25 26 27 27 28 28 29 29
18 20 21 21 22 23 25 26 29 29 28 29 29 29 30 31 28 24 26 28 26 25 21 20 22 22 25 26 27 28 28 29
19 19 19 20 20 21 20 21 24 25 27 28 29 29 30 30 28 25 24 25 25 25 24 24 24 25 26 26 26 28 29 29
19 20 21 19 20 20 20 20 21 22 24 26 27 27 27 27 27 25 24 24 25 25 26 26 27 27 27 27 28 28 28 28
22 23 22 20 21 21 22 22 21 21 22 25 25 24 24 25 25 25 24 25 25 25 26 26 26 27 27 27 27 28 28 28
24 24 25 24 24 23 22 20 19 20 21 22 24 25 25 25 26 25 25 24 23 23 24 25 25 26 26 27 28 28 28 28
26 28 25 27 26 24 22 21 21 20 21 22 22 24 25 25 26 26 25 24 23 24 25 25 26 27 27 27 27 28 28 28
Wind_Direction
48 89 122 153 164 177 200 205 200 199 202 197 200 204 202 205 207 208 209 211 217 214 213 209 211 216 217 215 216 220 227 233
226 192 157 150 161 172 176 186 198 204 203 203 204 198 203 203 205 204 207 210 206 205 206 208 215 219 219 220 223 228 234 240
224 209 193 186 173 172 178 183 184 185 190 193 195 199 202 205 205 207 209 208 206 209 214 219 223 225 225 226 229 234 241 247
223 216 207 196 188 182 179 179 181 183 185 187 192 196 202 204 207 206 208 210 210 217 222 226 229 231 232 233 236 239 247 253
223 215 206 200 194 188 185 183 182 184 185 188 192 199 203 207 209 211 214 217 220 224 229 232 234 238 239 240 242 246 251 258
217 215 211 207 202 200 197 195 195 194 194 196 198 204 207 210 214 218 221 221 221 229 235 237 240 243 245 245 246 249 254 258
221 216 214 216 212 210 207 205 205 203 203 204 207 209 211 213 216 218 220 222 229 235 240 242 246 247 247 248 250 252 255 260
224 219 217 216 216 216 215 214 214 213 213 214 216 218 220 222 222 225 226 230 236 241 245 248 250 250 251 250 251 252 255 259
226 225 223 223 222 223 223 223 223 222 222 224 226 227 229 232 232 234 237 241 245 248 252 255 254 255 250 253 255 253 253 258
228 230 229 229 229 229 226 228 229 229 230 231 233 235 237 239 239 243 246 249 251 254 257 260 260 254 254 253 255 254 255 259
231 231 231 232 232 232 233 234 235 235 235 237 240 242 244 249 249 251 253 254 255 258 259 261 259 264 250 250 253 256 262 263
232 231 232 235 238 237 238 239 241 241 242 243 245 248 250 253 256 255 255 257 258 261 262 258 263 250 244 252 260 262 265 267
238 236 238 240 244 244 244 243 245 247 249 251 252 251 251 254 257 263 253 259 261 259 272 251 251 249 254 259 262 266 267 268
237 241 244 245 250 249 247 247 247 249 250 254 254 253 250 253 260 268 252 253 256 260 265 248 249 257 261 263 264 267 268 270
244 241 244 250 250 246 244 246 249 250 252 254 255 254 253 254 255 259 258 253 254 257 252 254 258 262 265 265 266 270 272 272
245 246 244 255 251 243 246 249 252 255 256 255 255 255 255 255 252 255 258 256 257 258 255 258 261 265 266 265 269 270 270 270
247 245 254 254 248 247 254 258 258 257 260 257 254 254 254 253 252 253 255 257 259 258 258 260 264 265 264 267 268 270 270 271
251 248 252 251 250 251 254 256 257 259 263 264 256 254 255 253 252 252 255 257 254 257 260 260 262 266 266 268 270 271 271 274
254 253 251 252 249 250 252 253 257 262 269 269 262 256 254 254 253 253 254 255 256 259 263 264 266 268 268 269 270 271 274 276